Location: Newark
(20.0000°S, 47.0000°E)
Time: 12:19:10
(UTC+00:00)

N. Korean satellite - Pass Details

Date: 17 August 2020
Orbit: 455 x 503 km, 97.2° (Epoch: 20 September)

Event Time Altitude Azimuth Distance (km) Brightness Sun altitude
Rises 02:13:13 0° 358° (N) 2,572 10.3 -14.4°
Reaches altitude 10° 02:15:21 10° 350° (N) 1,700 9.3 -13.9°
Maximum altitude 02:18:49 40° 279° (W) 756 7.0 -13.1°
Drops below altitude 10° 02:22:20 10° 209° (SSW) 1,726 9.0 -12.3°
Enters shadow 02:24:24 - 201° (SSW) 2,561 9.9 -11.8°
